Regional Weather Roundup
Issued by NWS

Home | Current Version | Previous Version | Text Only | Print | Product List | Glossary Off
Versions: 1 2 3 4 5 6 7 8 9 10 11 12 13 14 15 16 17 18 19 20 21 22 23 24 25 26 27 28 29 30 31 32 33 34 35 36 37 38 39 40 41 42 43 44 45 46 47 48 49 50

000
ASUS43 KLOT 212103
RWRIL

ILLINOIS REGIONAL WEATHER ROUNDUP
NATIONAL WEATHER SERVICE CHICAGO/ROMEOVILLE IL
300 PM CST TUE FEB 21 2017

NOTE: "FAIR" INDICATES FEW OR NO CLOUDS BELOW 12,000 FEET WITH NO
SIGNIFICANT WEATHER AND/OR OBSTRUCTIONS TO VISIBILITY.

* THESE STATIONS ARE NOT UNDER NWS QUALITY CONTROL. THEY ALSO MAY NOT
  REPORT WEATHER SUCH AS PRECIPITATION OR FOG.

ILZ001-002-007-009-015-016-024-212200-
NORTHWEST ILLINOIS

CITY           SKY/WX    TMP DP  RH WIND       PRES   REMARKS
MOLINE         SUNNY     68  43  40 CALM      29.89F
STERLING*      SUNNY     65  45  48 VRB5      29.92R
SAVANNA*       SUNNY     63  43  48 S5        29.91S
$$

ILZ003-004-008-010-011-017-018-212200-
NORTH CENTRAL ILLINOIS

CITY           SKY/WX    TMP DP  RH WIND       PRES   REMARKS
ROCKFORD       MOSUNNY   65  41  41 VRB3      29.92S
FREEPORT*      SUNNY     63  40  42 SW5       29.92F
ROCHELLE*      MOSUNNY   64  47  55 W5        29.91R
DE KALB*       MOSUNNY   64  49  57 W7        29.91S
PERU*          PTSUNNY   62  54  74 W7        29.91S
$$

ILZ005-006-012>014-019>023-212200-
NORTHEAST ILLINOIS

CITY           SKY/WX    TMP DP  RH WIND       PRES   REMARKS
CHICAGO-OHARE  CLOUDY    65  52  62 W7        29.89S
CHICAGO-MIDWAY CLOUDY    64  53  67 W8        29.90S
AURORA         PTSUNNY   64  55  72 SW13      29.91R
LANSING*       CLOUDY    64  57  78 S7        29.91R
JOLIET*        MOSUNNY   66  57  73 W6        29.91R
WAUKEGAN       MOSUNNY   64  41  42 SW6       29.89S
DUPAGE AIRPORT PTSUNNY   64  53  67 SW8       29.90S
KANKAKEE*      CLOUDY    65  54  69 CALM      29.92S
WHEELING       MOSUNNY   65  47  52 SW7       29.90S
MORRIS*        CLOUDY    66  55  67 CALM      29.90R
ROMEOVILLE*    PTSUNNY   64  58  81 W7        29.91R
NORTHERLY ISL    N/A     62  52  69 SW10        N/A
$$

LMZ740>746-212200-
SOUTHERN LAKE MICHIGAN

STATION/POSITION SKY/WX   TEMP    WIND        PRES    VSBY  WAVE
                          AIR SEA DIR/SP/G                  HT/PER
                          (F)     (DEG/KT/KT) (MB)    (MI)  (FT/S)
HARRISON CRIB              58     210/  2/  3   N/A
BURNHAM HARBOR             62     290/  7/ 11   N/A
CALUMET HARBOR             55      70/  4/  6 1011.9F
BURNS HARBOR               51     320/  2/  4 1013.2F
MICHIGAN CITY              52     360/  3/  4   N/A
$$

ILZ025>027-034>036-040-047-049-050-058-095>099-212200-
WEST-CENTRAL ILLINOIS

CITY           SKY/WX    TMP DP  RH WIND       PRES   REMARKS
QUINCY         MOSUNNY   67  57  70 CALM      29.89F
GALESBURG*     MOSUNNY   65  55  70 S9        29.90F
MACOMB*        MOSUNNY   64  57  78 SW5       29.93S
JACKSONVILLE*  CLOUDY    63  58  83 SE7       29.90F
PITTSFIELD*    CLOUDY    66  59  76 CALM      29.91F
$$

ILZ028>032-037-038-041>044-048-051>054-059>061-212200-
CENTRAL ILLINOIS

CITY           SKY/WX    TMP DP  RH WIND       PRES   REMARKS
PONTIAC        CLOUDY    67  59  75 S6        29.91S
BLOOMINGTON    CLOUDY    64  54  69 S6        29.92S
DECATUR        CLOUDY    62  54  74 CALM      29.92S
PEORIA         CLOUDY    68  57  68 SW6       29.90F
LACON*         CLOUDY    66  57  72 SW3       29.90S
LINCOLN*       CLOUDY    65  58  78 SE7       29.91S
SPRINGFIELD    CLOUDY    63  57  81 SE3       29.91F
TAYLORVILLE    CLOUDY    61  57  87 N5        29.92F
$$

ILZ033-039-045-046-055>057-062-063-212200-
EAST-CENTRAL ILLINOIS

CITY           SKY/WX    TMP DP  RH WIND       PRES   REMARKS
CHAMPAIGN      CLOUDY    62  53  72 CALM      29.92R
RANTOUL*       PTSUNNY   65  56  72 CALM      29.91F
MATTOON        CLOUDY    61  54  77 S3        29.91R
PARIS*         CLOUDY    61  53  75 S5        29.92S
$$

ILZ079-100>102-212200-
SOUTHWEST ILLINOIS

CITY           SKY/WX    TMP DP  RH WIND       PRES   REMARKS
BELLEVILLE     CLOUDY    67  56  67 E6        29.87F
CAHOKIA*       CLOUDY    67  54  63 E6        29.88F
SPARTA*        CLOUDY    62  55  76 NE6       29.90R
$$

ILZ064>066-069>071-074>076-080>082-084>086-088>090-092>094-212200-
SOUTH-CENTRAL ILLINOIS

CITY           SKY/WX    TMP DP  RH WIND       PRES   REMARKS
CARBONDALE     CLOUDY    64  54  69 SE13      29.89S
CAIRO*         CLOUDY    62  56  81 SE6       29.89S
EFFINGHAM*     CLOUDY    62  56  79 E5        29.92F
MT. VERNON     CLOUDY    63  55  75 VRB6      29.90R
CENTRALIA*     CLOUDY    63  56  80 E7        29.89F
SALEM*         CLOUDY    62  55  78 E5        29.90F
METROPOLIS*    CLOUDY    64  56  76 CALM      29.90F
$$

ILZ067-068-072-073-078-083-087-091-212200-
SOUTHEAST ILLINOIS

CITY           SKY/WX    TMP DP  RH WIND       PRES   REMARKS
LAWRENCEVILLE  LGT RAIN  60  56  86 E5        29.93S FOG
FLORA*         CLOUDY    60  56  86 N6        29.92R
FAIRFIELD*     CLOUDY    62  54  77 SE6       29.89S
HARRISBURG*    CLOUDY    61  56  82 SE8       29.91F
ROBINSON*      PTSUNNY   60  54  81 S7        29.94R
CARMI*         CLOUDY    65  55  69 SE7       29.90F
$$

ABBREVIATIONS USED IN REMARKS
   TC - TEMPERATURE IN CELSIUS
  WCI - WIND CHILL INDEX
   HX - HEAT INDEX
  VSB - VISIBILITY
$$





USA.gov is the U.S. government's official web portal to all federal, state and local government web resources and services.